Flight Track Log - Related Links

Times and Time Zones

All times are in EDT time to prevent confusion due to time zone crossing. See the ACA7034 flight status page for this flight to view local times or setup timezone preferences in your user account.

Time Position Orientation Groundspeed Altitude Reporting Facility
EDT Latitude Longitude Course Direction KTS MPH feet Rate Location/Type
Sat 11:39:33 PM 40.4208 -80.1794 186° South 189 217 4,800  Level Cleveland Center
Sat 11:40:33 PM 40.3583 -80.1881 186° South 283 326 7,100 3,200 Climbing Cleveland Center
Sat 11:41:33 PM 40.2728 -80.1939 183° South 295 339 11,200 3,050 Climbing Cleveland Center
Sat 11:42:33 PM 40.1875 -80.2000 183° South 295 339 13,200 2,550 Climbing Cleveland Center
Sat 11:43:33 PM 40.0875 -80.2086 184° South 326 375 16,300 2,700 Climbing Cleveland Center
Sat 11:44:00 PM 39.8352 -80.2497 186° South  Level FlightAware Approximate
Sat 11:44:33 PM 39.9853 -80.2144 183° South 352 405 18,600  Level Cleveland Center
Sat 11:45:33 PM 39.8769 -80.2233 184° South 370 426 20,500 2,000 Climbing Cleveland Center
Sat 11:46:33 PM 39.7603 -80.2319 183° South 400 460 22,600 1,391 Climbing Cleveland Center
Sat 11:48:04 PM 39.5906 -80.2450 183° South 426 490 24,000 564 Climbing Washington Center
Sat 11:49:02 PM 39.4589 -80.2528 183° South 454 522 24,000  Level Washington Center
Sat 11:50:05 PM 39.3308 -80.2203 169° South 462 532 24,000  Level Washington Center
Sat 11:51:02 PM 39.2061 -80.1614 160° South 472 543 24,000  Level Washington Center
Sat 11:52:05 PM 39.0850 -80.1083 161° South 467 537 24,000  Level Washington Center
Sat 11:53:02 PM 38.9514 -80.0547 163° South 462 532 24,000  Level Washington Center
Sat 11:54:03 PM 38.8283 -79.9994 161° South 462 532 24,000  Level Washington Center
Sat 11:55:03 PM 38.7114 -79.9472 161° South 457 526 24,000  Level Washington Center
Sat 11:56:02 PM 38.5886 -79.8894 160° South 457 526 24,000  Level Washington Center
Sat 11:57:03 PM 38.4839 -79.8436 161° South 457 526 24,000  Level Washington Center
Sat 11:58:03 PM 38.3667 -79.7892 160° South 452 520 24,000  Level Washington Center
Sat 11:59:04 PM 38.2497 -79.7375 161° South 452 520 24,000  Level Washington Center
Sun 12:00:04 AM 38.1306 -79.6833 160° South 452 520 24,000  Level Washington Center
Sun 12:01:05 AM 38.0011 -79.6289 162° South 452 520 24,000  Level Washington Center
Sun 12:02:03 AM 37.8800 -79.5725 160° South 452 520 24,000  Level Washington Center
Sun 12:03:02 AM 37.7628 -79.5217 161° South 452 520 24,000  Level Washington Center
Sun 12:04:03 AM 37.6517 -79.4714 160° South 458 527 24,000 -683 Level Washington Center
Sun 12:05:05 AM 37.5219 -79.4150 161° South 458 527 22,600 -1,450 Descending Washington Center
Sun 12:06:03 AM 37.4069 -79.3647 161° South 446 513 21,100 -1,475 Descending Washington Center
Sun 12:07:03 AM 37.2956 -79.3175 161° South 433 498 19,700 1,450 Descending Washington Center
Sun 12:08:03 AM 37.1969 -79.2761 162° South 421 484 24,000 -706 Climbing Washington Center
Sun 12:09:02 AM 37.0939 -79.2294 160° South 410 472 18,300 -3,250 Descending Washington Center
Sun 12:10:03 AM 36.9889 -79.1828 160° South 405 466 17,500 -1,700 Descending Washington Center
Sun 12:11:02 AM 36.8881 -79.1392 161° South 399 459 14,900 -2,571 Descending Washington Center
Sun 12:12:02 AM 36.7808 -79.0956 162° South 386 444 12,400 -1,900 Descending Washington Center
Sun 12:13:02 AM 36.6900 -79.0575 161° South 362 417 11,100 -1,091 Descending Washington Center
Sun 12:14:03 AM 36.6117 -79.0283 163° South 327 376 10,200 -541 Descending Washington Center
Sun 12:15:04 AM 36.5375 -78.9939 160° South 301 346 10,000 -94 Descending Washington Center
Sun 12:16:10 AM 36.4614 -78.9622 161° South 269 310 10,000 -48 Level Washington Center
Sun 12:17:09 AM 36.3811 -78.9175 156° South 285 328 9,900 -807 Descending Washington Center
Sun 12:18:09 AM 36.3139 -78.8631 147° Southeast 291 335 8,400 -942 Descending Washington Center
Sun 12:19:10 AM 36.2528 -78.8039 142° Southeast 286 329 8,000 -893 Descending Washington Center
Sun 12:20:10 AM 36.1936 -78.7525 145° Southeast 276 318 6,600 -1,339 Descending Washington Center
Sun 12:21:11 AM 36.1294 -78.7372 169° South 263 303 5,300 -1,350 Descending Washington Center
Sun 12:22:10 AM 36.0589 -78.7242 171° South 258 297 3,900 -1,087 Descending Washington Center
Sun 12:23:18 AM 35.9842 -78.7083 170° South 215 247 3,000 -609 Descending Washington Center
Sun 12:24:18 AM 35.9361 -78.7089 181° South 153 176 2,600 -750 Descending Washington Center
Sun 12:25:18 AM 35.9103 -78.7414 226° Southwest 117 135 1,500 -950 Descending Washington Center
Sun 12:26:18 AM 35.8864 -78.7686 223° Southwest 115 132 700 -800 Descending Washington Center
Sun 12:28:00 AM 35.8667 -78.7833 North  Level FlightAware Approximate
Sun 12:35:00 AM 35.8776 -78.7875 North  Level Estimated
Sun 12:36:00 AM 35.8776 -78.7875 North  Level Estimated
Sun 12:37:00 AM 35.8776 -78.7875 North  Level Estimated
Sun 12:38:00 AM 35.8776 -78.7875 North  Level Estimated
Sun 12:39:00 AM 35.8776 -78.7875 North  Level Estimated

Login

Don't have an account? Register now (free) for customized features, flight alerts, and more!